Location: Colossi of Memnon
(25.7167°N, 32.6167°E)
Time: 20:07:16
(UTC+00:00)

Envisat - Pass Details

Date: 26 September 2021
Orbit: 764 x 766 km, 98.2° (Epoch: 15 October)

Event Time Altitude Azimuth Distance (km) Brightness Sun altitude
Rises 01:46:02 0° 36° (NE) 3,227 6.9 -26.3°
Reaches altitude 10° 01:49:11 10° 56° (ENE) 2,298 6.3 -25.6°
Maximum altitude 01:52:22 17° 96° (E) 1,871 5.8 -24.9°
Drops below altitude 10° 01:55:32 10° 135° (SE) 2,291 5.9 -24.2°
Sets 01:58:38 0° 155° (SSE) 3,213 6.4 -23.5°
